Theta_e
308 309 309 308 308 308 308 308 308 310 310 310 311 311 311 311 311 314 315 317 314 311 313 314 316 315 318 316 312 308 311 313 315 316 315 311 313 312 311 313 313 312 312 313 327
302 303 307 308 309 308 307 307 307 309 310 310 311 311 311 310 312 314 316 316 311 312 311 312 313 313 313 314 310 310 311 313 312 311 311 311 312 312 313 313 312 312 311 313 316
300 300 302 306 307 309 308 307 308 308 310 311 311 311 310 311 312 315 315 312 310 311 312 313 313 313 315 313 312 309 312 311 313 310 309 311 311 312 310 313 311 311 310 310 311
299 299 300 302 304 307 308 308 308 308 310 311 311 311 310 313 316 314 311 310 311 312 313 314 309 310 310 313 310 315 312 311 312 313 311 311 311 311 311 311 310 310 309 308 310
298 299 299 300 301 303 306 308 308 308 310 311 311 311 311 309 311 317 309 311 313 314 312 310 309 309 310 309 309 312 312 311 312 309 310 310 312 312 311 311 309 309 310 308 309
299 299 299 300 301 302 304 308 308 308 310 311 311 311 311 310 314 314 309 312 313 313 312 311 311 310 309 310 310 310 311 310 310 310 310 311 312 312 311 309 308 309 309 309 311
299 299 300 300 301 302 305 310 308 308 310 311 311 313 311 307 314 314 310 312 313 313 312 312 311 312 309 311 309 311 312 311 310 310 311 310 311 311 311 308 308 308 309 311 312
299 299 300 301 302 303 310 311 309 310 310 311 311 313 306 311 314 316 316 313 313 313 313 313 311 308 310 310 308 309 308 310 310 308 309 310 309 310 309 308 308 308 309 312 312
299 299 300 301 302 305 313 312 309 311 311 311 312 312 309 312 314 315 316 313 312 313 313 313 310 307 308 307 307 306 309 309 310 307 310 309 310 309 307 308 309 308 309 312 313
299 300 300 301 303 307 314 313 313 312 313 313 315 308 307 310 315 314 317 313 312 311 310 309 306 308 305 304 306 308 310 309 310 312 309 309 308 308 309 308 309 308 310 313 314
299 300 300 303 304 312 315 314 310 310 311 311 312 308 307 313 313 311 313 312 311 309 310 310 309 309 310 308 309 311 311 312 310 310 313 310 309 308 308 310 308 308 310 313 315
299 299 302 308 307 306 315 311 312 313 312 309 310 310 313 313 313 314 312 311 311 310 310 308 309 309 310 311 312 312 313 311 309 311 313 313 311 310 311 310 309 308 308 313 313
299 299 306 310 312 304 313 312 311 312 310 311 310 311 311 312 312 313 311 310 311 310 310 310 312 312 312 313 313 312 311 310 311 313 313 313 312 313 312 311 311 309 309 311 314
299 299 305 310 304 304 309 311 313 312 309 311 316 314 313 311 313 313 312 311 311 310 309 310 310 311 311 312 311 312 310 311 313 312 311 312 311 311 311 311 311 310 307 309 313
298 299 303 306 308 305 309 312 313 311 310 312 314 313 312 313 314 314 312 312 311 312 311 312 310 311 311 311 311 312 311 311 313 311 312 312 312 310 309 311 311 309 307 307 312
298 299 301 304 305 305 313 314 311 310 314 316 313 313 313 313 314 313 313 311 311 311 311 311 310 310 310 310 310 311 310 310 311 308 311 311 311 310 310 311 315 315 313 309 310
298 299 302 302 300 309 313 307 304 310 311 315 313 313 313 313 313 314 314 313 311 312 312 311 311 310 310 312 311 309 310 312 313 314 313 312 312 310 310 311 316 316 313 310 310
299 300 304 302 302 309 311 307 308 307 314 313 313 314 314 312 312 312 314 313 312 310 309 312 313 312 311 311 310 309 310 313 315 313 314 317 320 318 317 315 313 312 311 310 310
300 299 302 301 302 308 308 308 304 311 313 312 311 313 313 313 313 313 312 313 313 310 312 311 312 311 311 311 311 311 311 309 312 315 317 316 315 313 318 316 314 313 312 311 310
298 297 300 301 302 309 309 313 312 308 309 311 312 312 312 311 312 312 314 314 317 316 314 312 313 312 313 312 312 311 311 313 310 318 319 315 316 316 320 318 316 315 313 312 311
297 294 299 302 302 301 304 310 309 307 306 309 310 311 310 304 306 311 314 314 315 317 314 311 311 313 315 313 313 315 314 314 313 312 316 316 317 313 313 316 316 314 313 312 311
295 296 299 301 297 296 300 303 305 306 305 306 304 306 304 304 305 311 315 313 314 317 317 315 311 313 314 312 312 313 313 315 316 317 314 313 317 314 316 314 314 314 314 312 310
293 294 299 301 299 298 300 301 303 302 302 303 304 302 303 303 304 305 311 306 307 312 315 316 311 313 315 312 314 315 311 314 311 311 317 318 318 313 315 315 314 315 313 312 310
293 296 296 295 296 299 299 299 301 299 299 302 301 299 302 302 302 302 302 304 303 305 309 313 313 311 313 313 314 316 316 312 313 313 317 316 317 317 316 316 315 313 311 310 311
292 294 296 297 298 296 297 297 297 298 299 299 299 301 300 301 301 301 302 302 305 305 306 308 309 313 313 315 313 315 316 315 313 314 315 316 313 315 315 315 314 314 312 312 311
295 295 294 294 295 296 297 298 300 299 299 300 300 300 298 300 300 302 301 303 305 304 305 306 308 311 309 306 307 314 316 317 314 315 314 314 314 312 310 312 313 313 313 313 312
296 295 295 297 297 297 296 298 299 297 298 299 298 299 299 300 299 299 301 301 302 303 303 304 305 307 307 305 307 308 311 316 317 315 315 315 315 312 313 313 312 312 312 313 312
Wind_Speed
28 28 27 22 17 16 15 13 12 9 7 6 6 7 11 16 15 3 4 3 3 1 3 2 4 3 2 2 2 3 4 3 6 6 4 4 5 3 2 5 3 3 4 10 19
28 28 26 24 22 18 17 15 12 9 7 6 6 8 12 18 10 5 4 5 3 2 1 5 1 3 3 2 2 4 4 9 6 6 6 6 3 6 4 3 5 6 8 15 17
27 28 27 24 23 21 20 17 12 8 6 5 6 9 12 13 3 4 1 4 5 1 1 1 3 2 3 1 2 3 5 5 4 5 7 8 6 3 10 2 6 13 10 6 13
29 28 27 27 24 22 22 18 13 8 4 4 4 8 11 4 2 1 3 7 4 1 2 3 3 3 3 2 2 2 4 5 7 6 4 7 5 5 3 8 9 10 13 8 9
30 30 30 28 26 24 24 18 12 7 4 2 3 6 3 4 6 1 6 6 1 2 5 3 4 2 4 1 1 1 2 2 3 8 3 5 5 6 7 3 8 7 7 11 10
32 32 32 31 29 27 26 17 9 5 3 1 1 3 2 2 3 1 7 4 2 2 2 3 3 3 4 2 3 2 1 2 1 4 3 7 3 4 6 6 9 10 9 10 15
34 35 34 33 31 30 26 14 5 3 3 2 1 1 2 10 1 3 5 3 1 1 1 2 5 3 4 2 3 0 2 4 2 3 4 5 4 7 4 8 11 10 9 10 9
36 37 37 37 34 30 22 12 3 3 4 2 2 2 6 4 5 8 6 7 4 4 2 3 4 5 3 1 6 3 5 3 2 5 3 9 7 9 8 11 12 10 8 8 10
39 39 39 41 37 25 19 13 2 3 4 3 1 2 8 7 6 10 11 5 1 1 4 5 4 4 5 5 4 6 3 4 5 7 2 6 4 10 8 10 11 9 9 9 7
41 42 42 42 35 18 20 6 7 3 2 2 1 3 5 2 3 5 13 10 1 3 4 7 5 4 4 4 6 6 3 4 4 3 4 4 7 7 4 7 12 10 9 10 11
43 44 46 39 27 12 18 3 6 5 3 5 5 5 5 6 2 2 7 7 3 7 4 2 4 4 6 6 2 1 1 2 3 3 2 6 7 11 7 4 7 8 9 10 14
44 46 45 33 14 13 14 7 7 6 9 10 13 7 17 4 4 2 9 5 4 4 4 5 5 8 4 3 4 3 1 6 6 3 3 4 8 9 5 7 9 11 11 16 9
43 46 41 29 5 11 10 9 19 3 3 7 4 3 4 11 7 6 6 3 3 4 4 6 5 4 4 3 3 3 4 5 7 3 2 4 6 6 7 5 5 8 8 14 19
43 43 37 25 4 15 1 22 23 7 5 7 4 3 2 5 3 11 10 6 2 8 8 5 3 4 3 2 6 4 8 5 4 3 4 1 6 5 6 8 6 12 9 10 13
42 40 30 21 11 4 17 24 11 2 4 2 2 2 0 2 2 2 4 4 8 6 6 7 6 4 4 6 6 7 4 7 3 3 1 1 2 7 3 5 10 9 8 8 13
41 38 21 14 12 20 20 16 2 5 6 6 5 7 3 3 3 2 3 6 3 4 3 6 1 5 7 4 6 8 6 7 4 3 2 7 7 5 4 4 6 5 6 9 11
41 35 9 12 12 22 16 4 4 3 6 5 5 7 4 5 4 4 1 3 6 4 5 4 4 3 4 3 3 5 6 2 3 2 6 0 1 8 6 7 6 13 10 5 9
42 28 2 21 27 17 6 5 3 2 3 3 5 6 1 7 5 8 2 1 3 4 3 5 8 7 5 8 8 7 8 6 6 4 4 1 6 6 3 5 7 5 2 5 7
42 26 4 27 23 12 5 3 5 1 4 6 7 4 3 4 5 6 6 2 3 1 5 5 6 5 5 3 8 4 4 4 6 2 2 5 7 8 2 5 4 4 7 8 8
28 16 7 32 21 2 4 5 2 4 5 2 2 1 3 5 5 6 3 4 6 4 3 4 5 6 6 5 4 5 8 3 3 3 5 4 5 6 5 4 3 5 7 7 9
11 5 21 30 14 5 3 3 3 5 8 5 3 4 2 3 1 2 4 4 6 6 5 5 3 6 1 6 9 3 2 5 4 4 6 2 6 7 9 10 11 10 11 11 9
10 4 21 28 4 2 3 6 7 7 8 5 3 4 2 3 3 4 5 3 7 4 4 4 2 4 9 5 2 6 8 7 5 5 3 3 11 6 8 12 11 10 9 7 8
3 3 11 13 4 4 6 5 3 8 7 7 5 5 3 3 3 2 5 5 13 9 5 6 3 5 9 5 3 3 4 5 4 4 8 6 11 4 4 6 9 10 9 9 9
3 4 4 5 3 4 5 4 7 7 4 3 4 5 4 2 1 5 6 5 14 8 14 4 4 8 9 7 5 7 8 5 7 5 15 7 23 5 6 8 8 10 9 8 7
4 1 1 4 3 6 2 4 9 5 4 7 5 3 5 4 4 7 3 11 3 12 6 4 6 4 11 7 6 14 18 17 10 17 11 22 11 20 11 10 12 14 6 8 9
2 3 3 3 4 5 4 2 4 7 3 3 7 6 9 5 6 15 10 5 6 8 3 2 5 3 15 14 15 14 15 19 22 21 14 20 19 9 9 9 6 10 9 10 10
0 1 1 4 3 3 4 4 6 9 8 7 13 11 12 11 11 12 6 11 13 10 9 9 7 3 21 13 11 9 25 17 18 16 20 16 21 7 8 10 12 13 12 14 13
Wind_Direction
15 14 14 11 6 1 358 357 356 351 339 333 330 326 327 332 338 288 234 214 201 282 344 12 127 27 108 69 86 128 67 161 200 167 182 167 138 190 344 90 53 34 108 129 127
10 9 9 9 5 357 353 348 346 345 336 329 326 327 330 334 327 247 224 213 232 174 3 41 56 25 66 95 41 89 113 204 188 185 181 155 147 152 102 97 35 79 69 123 125
6 5 3 3 2 358 351 342 335 332 329 326 327 329 330 333 349 255 123 192 165 187 2 358 95 107 114 130 173 153 181 186 205 204 154 148 143 128 121 311 197 160 151 125 116
3 2 0 358 356 353 352 341 331 316 314 315 322 325 327 344 199 106 153 153 162 357 20 116 86 80 97 128 348 166 218 183 167 164 128 163 139 109 151 213 171 179 143 133 134
3 360 358 355 353 351 347 343 329 309 295 301 326 334 338 11 250 170 159 160 146 64 64 99 67 105 122 128 18 146 276 170 191 150 144 126 178 179 210 197 164 129 129 146 141
4 1 357 354 351 348 343 340 327 299 267 260 332 337 76 299 344 276 188 184 212 119 107 92 137 152 106 78 99 295 308 7 187 178 114 147 219 145 252 131 147 150 169 158 158
4 2 358 354 349 345 342 340 315 262 248 253 345 328 119 234 275 349 209 233 204 129 102 123 127 92 128 81 332 248 105 7 257 193 227 126 287 223 209 162 164 179 184 163 180
3 1 358 354 347 342 346 346 302 228 213 234 326 288 246 228 261 240 250 247 269 266 218 148 100 96 59 82 22 80 53 137 267 153 254 147 236 248 193 163 192 186 186 186 190
1 359 357 353 347 342 350 348 296 205 197 211 213 124 268 299 260 238 227 201 351 350 87 124 77 76 34 94 17 5 195 184 302 200 127 175 269 245 188 175 195 188 188 195 196
359 357 354 351 347 347 353 32 56 133 151 125 212 14 285 266 255 214 205 204 229 80 39 47 51 71 40 80 212 211 197 222 214 201 169 189 264 284 174 178 211 197 188 194 199
358 355 350 348 348 12 13 27 17 350 5 225 202 230 279 288 276 221 174 136 110 62 155 29 75 214 218 193 158 146 174 255 252 256 216 223 246 252 251 203 190 186 193 203 210
357 354 350 349 357 17 52 87 101 283 301 242 251 251 254 319 339 340 159 145 138 172 120 27 235 227 200 189 200 187 291 285 284 264 167 288 261 251 247 224 212 202 205 206 192
357 355 354 353 18 15 81 96 338 294 267 301 222 209 220 169 216 254 147 122 139 149 177 161 228 111 172 175 174 215 185 224 220 360 15 336 280 237 260 257 242 242 211 207 197
355 356 357 1 38 346 28 337 346 168 37 283 331 312 109 122 249 206 184 139 133 197 160 221 271 155 129 224 157 246 210 179 180 107 236 42 281 286 241 249 256 252 208 205 198
352 355 356 14 341 0 315 324 353 111 343 279 15 139 137 204 293 349 156 68 181 186 123 247 174 176 204 216 164 229 144 154 137 132 86 276 309 261 249 255 252 256 260 232 200
348 350 350 352 340 337 330 331 75 47 251 352 23 351 19 275 330 66 124 59 131 129 341 234 218 178 208 234 171 153 81 55 60 102 312 212 183 272 245 216 303 274 255 244 179
346 346 355 10 330 344 341 26 40 161 331 0 347 335 334 321 354 47 144 149 175 122 244 327 235 250 161 168 49 83 75 346 343 2 232 195 128 251 242 281 255 287 283 235 165
343 346 42 6 351 348 356 48 196 311 342 19 328 311 55 12 354 342 78 242 192 120 146 193 291 179 185 191 184 187 155 157 209 199 254 94 235 250 247 308 300 300 171 125 134
343 350 39 356 353 344 63 74 224 280 340 345 333 351 330 11 5 11 2 233 355 140 194 191 258 285 184 180 141 190 164 200 105 24 63 234 290 304 234 359 25 76 114 128 134
341 333 1 354 352 22 82 224 226 15 321 346 190 299 291 2 18 24 310 17 352 57 283 276 295 239 239 102 48 168 158 78 6 171 229 268 269 235 236 211 141 138 156 178 187
353 11 357 357 344 48 161 222 329 38 10 3 355 304 34 8 303 281 266 62 353 328 1 1 138 285 96 201 178 145 187 52 129 145 184 213 257 217 211 188 188 199 198 199 201
352 356 355 353 42 30 38 333 308 352 10 352 3 39 9 2 270 248 238 29 344 325 20 10 287 251 238 275 243 177 195 158 144 221 227 167 261 201 211 192 185 207 215 215 215
4 274 345 8 65 13 332 327 327 18 356 355 344 27 357 280 313 283 318 30 28 18 40 347 323 336 329 348 15 224 197 151 120 77 198 176 262 196 194 186 208 205 212 213 219
19 355 331 29 24 60 19 310 331 342 294 305 308 343 4 264 280 277 346 321 353 337 330 347 233 203 245 264 312 287 306 247 182 171 241 213 254 202 217 215 218 221 220 219 230
24 31 142 339 344 344 262 271 276 290 303 31 322 61 33 295 325 267 307 319 308 284 267 196 237 234 270 278 303 290 286 270 215 233 208 248 219 252 207 209 222 228 212 205 216
58 16 357 266 305 325 322 264 283 298 294 290 306 324 319 259 255 287 285 236 216 284 289 228 259 273 280 291 280 276 282 262 256 249 251 247 256 253 203 216 213 213 202 214 217
309 189 161 264 199 255 225 269 305 334 293 270 319 311 295 268 260 271 250 270 255 264 266 263 272 248 270 269 287 279 246 256 259 246 235 235 246 170 224 216 226 230 208 219 213